Location: Bakov nad Jizerou
(50.4784°N, 14.9394°E)
Time: 11:37:03
(UTC+00:00)

Cosmos 1536 Rocket - Pass Details

Date: 19 October 2021
Orbit: 605 x 632 km, 82.5° (Epoch: 29 November)

Event Time Altitude Azimuth Distance (km) Brightness Sun altitude
Rises 16:22:28 0° 347° (NNW) 2,882 7.0 -4.3°
Reaches altitude 10° 16:24:42 10° 344° (NNW) 1,970 6.2 -4.7°
Maximum altitude 16:29:00 62° 264° (W) 687 4.2 -5.3°
Drops below altitude 10° 16:33:15 10° 184° (S) 1,949 6.3 -6.0°
Sets 16:35:28 0° 181° (S) 2,848 7.1 -6.3°
